Regional Weather Roundup
Issued by NWS

Home | Current Version | Previous Version | Graphics & Text | Print | Product List | Glossary On
Versions: 1 2 3 4 5 6 7 8 9 10 11 12 13 14 15 16 17 18 19 20 21 22 23 24 25 26 27 28 29 30 31 32 33 34 35 36 37 38 39 40 41 42 43 44 45 46 47 48 49 50
810
ASUS44 KJAN 250610
RWRMS

MISSISSIPPI HOURLY WEATHER ROUNDUP
NATIONAL WEATHER SERVICE JACKSON MS
100 AM CDT SAT OCT 25 2014

NOTE: "FAIR: INDICATES FEW OR NO CLOUDS BELOW 12,000 FEET WITH NO
SIGNIFICANT WEATHER AND/OR OBSTRUCTIONS TO VISIBILITY.

MSZ001>002-007>008-010>013-018>021-025>028-034>036-250700-
NORTHWEST MISSISSIPPI

CITY           SKY/WX    TMP DP  RH WIND       PRES   REMARKS
CLARKSDALE     FAIR      55  55 100 CALM      30.11S
CLEVELAND      FAIR      54  53  97 CALM      30.10S
GREENWOOD      CLEAR     50  49  96 CALM      30.11S
6HR MIN TEMP:  50; 6HR MAX TEMP:  57;

GREENVILLE     CLEAR     54  51  90 CALM      30.10F
6HR MIN TEMP:  52; 6HR MAX TEMP:  63;

GRENADA          N/A    N/A N/A N/A MISG        N/A
OLIVE BRANCH   CLEAR     54  54 100 CALM      30.09S
OXFORD         FAIR      48  48 100 CALM      30.11F
TUNICA         CLEAR     54  52  94 S3        30.10S
$$

MSZ003>006-009-014>017-022>024-029>033-037>039-250700-
NORTHEAST MISSISSIPPI

CITY           SKY/WX    TMP DP  RH WIND       PRES   REMARKS
COLUMBUS AFB   CLEAR     47  46  96 CALM      30.10S
6HR MIN TEMP:  46; 6HR MAX TEMP:  57; 6HR PCP: TRACE;

CORINTH        FAIR      48  48 100 CALM      30.09S FOG
GOLDN TRIANGLE CLEAR    N/A N/A N/A CALM      30.10S
STARKVILLE     FAIR      46  45  93 CALM      30.11S
TUPELO         CLEAR     52  50  93 CALM      30.10S
6HR MIN TEMP:  52; 6HR MAX TEMP:  62;

$$

MSZ040-058-250700-
CENTRAL MISSISSIPPI

CITY           SKY/WX    TMP DP  RH WIND       PRES   REMARKS
JACKSON INTL   CLEAR     49  46  90 CALM      30.12F
6HR MIN TEMP:  48; 6HR MAX TEMP:  60;

JACKSON HAWKNS CLEAR     52  46  80 NW3       30.13S
6HR MIN TEMP:  51; 6HR MAX TEMP:  65;

MERIDIAN KEY   CLEAR     46  43  89 CALM      30.11S
6HR MIN TEMP:  45; 6HR MAX TEMP:  59;

MERIDIAN NAS   CLEAR     49  45  86 CALM      30.11S
6HR MIN TEMP:  49; 6HR MAX TEMP:  63;

RAYMOND        FAIR      46  41  81 MISG      30.13S FOG
VICKSBURG      CLEAR     45  43  93 CALM      30.14S
6HR MIN TEMP:  44; 6HR MAX TEMP:  56;

$$

MSZ059>079-250700-
SOUTH MISSISSIPPI

CITY           SKY/WX    TMP DP  RH WIND       PRES   REMARKS
BROOKHAVEN     FAIR      48  46  93 CALM      30.14S
COLUMBIA         N/A    N/A N/A N/A MISG        N/A
HATTIESBURG    CLEAR     48  46  93 CALM      30.11S
6HR MIN TEMP:  47; 6HR MAX TEMP:  61;

MCCOMB         CLEAR     50  46  86 CALM      30.12S
6HR MIN TEMP:  50; 6HR MAX TEMP:  66;

NATCHEZ        CLEAR     48  45  87 CALM      30.14S
6HR MIN TEMP:  46; 6HR MAX TEMP:  61;

PINE BELT      CLEAR     50  45  81 CALM      30.12S
6HR MIN TEMP:  50; 6HR MAX TEMP:  63;

$$

MSZ080>082-250700-
COASTAL MISSISSIPPI

CITY           SKY/WX    TMP DP  RH WIND       PRES   REMARKS
BILOXI         CLEAR     60  48  65 N5        30.08R
6HR MIN TEMP:  60; 6HR MAX TEMP:  69;

PASCAGOULA     CLEAR     47  46  97 CALM      30.08R
6HR MIN TEMP:  46; 6HR MAX TEMP:  59;

GULFPORT       CLEAR     54  47  77 NW5       30.08R
6HR MIN TEMP:  52; 6HR MAX TEMP:  65;

$$



USA.gov is the U.S. government's official web portal to all federal, state and local government web resources and services.